Moosic, PA

9:05 AM EST on February 10, 2016 (GMT -0500)
Wilkes-Barre-Scranton International

Weather History for KAVP - December, 2012

Change the Weather History Date:

Saturday, December 1, 2012

  Actual Average Record
Temperature  
Mean Temperature 38 °F 36 °F  
Max Temperature 41 °F 43 °F 71 °F (2006)
Min Temperature 35 °F 29 °F 5 °F (1936)
Degree Days  
Heating Degree Days 27 29  
Month to date heating degree days 27 29  
Since 1 July heating degree days 1254 1342  
Cooling Degree Days 0 0  
Month to date cooling degree days 0 0  
Year to date cooling degree days 864 580  
Moisture  
Dew Point 33 °F    
Average Humidity 82    
Maximum Humidity 89    
Minimum Humidity 75    
Precipitation  
Precipitation T in 0.10 in 1.58 in (2010)
Month to date precipitation T 0.10  
Year to date precipitation 34.17 35.68  
Sea Level Pressure  
Sea Level Pressure 30.41 in    
Wind  
Wind Speed 3 mph (ENE)    
Max Wind Speed 9 mph    
Max Gust Speed 15 mph    
Visibility 9 miles    
Events      
T = Trace of Precipitation, MM = Missing Value Source: NWS Daily Summary

Daily Weather History Graph

Daily Weather History Graph

Search for Another Location

Airport or City:

Trip Planner

Search our weather history database for the weather conditions in past years. The results will help you decide how hot, cold, wet, or windy it might be!

Date:

Astronomy

Dec. 01, 2012 Rise Set
Actual Time 7:09 AM EST 4:34 PM EST
Civil Twilight 6:39 AM EST 5:04 PM EST
Nautical Twilight 6:04 AM EST 5:39 PM EST
Astronomical Twilight 5:31 AM EST 6:12 PM EST
Moon 7:22 PM EST (12/1) 9:20 AM EST (12/1)
Length of Visible Light 10h 25m
Length of Day
9h 24m
Waning Gibbous, 92% of the Moon is Illuminated
Dec 1
Waning Gibbous
Dec 6
Last Quarter
Dec 13
New
Dec 20
First Quarter
Dec 28
Full

Hourly Weather History & Observations

Time (EST) Temp. Windchill Dew Point Humidity Pressure Visibility Wind Dir Wind Speed Gust Speed Precip Events Conditions
12:28 AM 35.6 °F 32.8 °F 30.2 °F 81% 30.37 in 8.0 mi Variable 3.5 mph - N/A   Overcast
12:54 AM 36.0 °F 32.1 °F 30.9 °F 82% 30.39 in 7.0 mi NNE 4.6 mph - N/A   Overcast
1:54 AM 36.0 °F 32.1 °F 30.9 °F 82% 30.40 in 7.0 mi NE 4.6 mph - N/A   Overcast
2:54 AM 35.1 °F 31.0 °F 30.0 °F 82% 30.40 in 7.0 mi NE 4.6 mph - N/A   Overcast
3:54 AM 35.1 °F 30.1 °F 30.9 °F 85% 30.39 in 8.0 mi NE 5.8 mph - N/A   Overcast
4:54 AM 35.1 °F 31.0 °F 30.9 °F 85% 30.40 in 8.0 mi Variable 4.6 mph - 0.00 in   Overcast
5:12 AM 35.6 °F 31.7 °F 30.2 °F 81% 30.38 in 9.0 mi Variable 4.6 mph - N/A   Overcast
5:54 AM 35.1 °F 31.0 °F 30.9 °F 85% 30.41 in 9.0 mi Variable 4.6 mph - N/A   Overcast
6:13 AM 35.6 °F 30.7 °F 30.2 °F 81% 30.39 in 9.0 mi NE 5.8 mph - N/A   Overcast
6:54 AM 36.0 °F 32.1 °F 30.9 °F 82% 30.42 in 10.0 mi East 4.6 mph - N/A   Overcast
7:54 AM 36.0 °F 31.1 °F 32.0 °F 86% 30.45 in 7.0 mi NE 5.8 mph - N/A   Overcast
8:15 AM 37.4 °F 33.8 °F 32.0 °F 81% 30.43 in 9.0 mi ENE 4.6 mph - N/A   Overcast
8:41 AM 37.4 °F 32.8 °F 32.0 °F 81% 30.44 in 8.0 mi NE 5.8 mph - N/A   Overcast
8:54 AM 37.0 °F 33.3 °F 32.0 °F 82% 30.45 in 8.0 mi ENE 4.6 mph - N/A   Overcast
9:08 AM 37.4 °F 32.1 °F 33.8 °F 87% 30.43 in 9.0 mi Variable 6.9 mph - N/A   Overcast
9:54 AM 39.9 °F 36.7 °F 34.0 °F 79% 30.45 in 10.0 mi East 4.6 mph - N/A   Overcast
10:54 AM 39.9 °F - 35.1 °F 83% 30.43 in 10.0 mi Calm Calm - N/A   Overcast
11:54 AM 39.9 °F - 35.1 °F 83% 30.43 in 10.0 mi Calm Calm - N/A   Overcast
12:54 PM 41.0 °F 39.0 °F 36.0 °F 82% 30.40 in 10.0 mi Variable 3.5 mph - N/A   Overcast
1:54 PM 41.0 °F 38.0 °F 35.1 °F 79% 30.40 in 10.0 mi ESE 4.6 mph - N/A   Overcast
2:54 PM 39.9 °F 37.8 °F 35.1 °F 83% 30.40 in 10.0 mi ESE 3.5 mph - N/A   Overcast
3:54 PM 39.0 °F 35.7 °F 35.1 °F 86% 30.42 in 10.0 mi ESE 4.6 mph - N/A   Overcast
4:54 PM 39.0 °F 35.7 °F 35.1 °F 86% 30.42 in 10.0 mi ESE 4.6 mph - N/A   Overcast
5:49 PM 39.2 °F 37.0 °F 35.6 °F 87% 30.40 in 10.0 mi ESE 3.5 mph - N/A   Overcast
5:54 PM 39.0 °F 35.7 °F 35.1 °F 86% 30.42 in 10.0 mi ESE 4.6 mph - N/A   Overcast
6:50 PM 39.2 °F - 35.6 °F 87% 30.39 in 10.0 mi Calm Calm - N/A   Overcast
6:54 PM 39.0 °F 36.8 °F 35.1 °F 86% 30.41 in 10.0 mi ESE 3.5 mph - N/A   Overcast
7:54 PM 39.9 °F - 36.0 °F 86% 30.41 in 10.0 mi Calm Calm - N/A   Overcast
8:54 PM 39.9 °F - 36.0 °F 86% 30.42 in 10.0 mi Calm Calm - N/A   Overcast
9:54 PM 39.9 °F - 36.0 °F 86% 30.41 in 10.0 mi Calm Calm - N/A   Overcast
10:54 PM 41.0 °F - 36.0 °F 82% 30.39 in 10.0 mi Calm Calm - N/A   Overcast
11:54 PM 39.9 °F - 37.0 °F 89% 30.39 in 10.0 mi Calm Calm - N/A   Overcast